Location: North Runcton
(52.7000°N, 0.4333°E)
Time: 18:14:44
(UTC+00:00)

Cosmos 1805 Rocket - Pass Details

Date: 19 May 2025
Orbit: 600 x 623 km, 82.5° (Epoch: 22 June)

Event Time Altitude Azimuth Distance (km) Brightness Sun altitude
Rises 23:00:58 0° 350° (N) 2,921 8.9 -16.4°
Reaches altitude 10° 23:03:14 10° 353° (N) 2,008 7.5 -16.5°
Maximum altitude 23:07:40 67° 77° (ENE) 679 3.7 -16.6°
Enters shadow 23:09:42 31° 151° (SSE) 1,103 4.3 -16.7°
